sat.trackr.live / text

‹ back to catalog

STARLINK-5535

NORAD 56356 · 2023-058AR

PAYLOAD ACTIVE UNKNOWN

§ Identity

Operator
Country
US
Launch date
2023-04-27
Launch site
AFWTR
Launch vehicle
Mass (kg)
RCS (m²)

Purposes: comms

External: N2YO · Heavens-Above · Gunter

§ Orbital elements

Epoch: 2026-09-20T23:09:27.558720Z

Period
93.91 min
Inclination
97.2837°
Eccentricity
0.0001735
Mean motion
15.33435226 rev/d
Perigee alt
464.4 km
Apogee alt
466.8 km
Semi-major
6,843.7 km
B*
-2.1377e-6
RAAN
260.6740°
Arg perigee
92.4502°
Mean anomaly
267.6939°
Rev number
18,770

§ Raw data

STARLINK-55351 56356U 23058AR  26263.96490230 -.00000144  00000+0 -21377-5 0  99902 56356  97.2837 260.6740 0001735  92.4502 267.6939 15.33435226187705

JSON: /api/v1/satellites/56356 · /tle

For live sub-satellite position, see the globe view (requires WebGL).

§ Visibility from observer

Set your observer location to see the next 7 days of passes ≥ 10°. The values pass through the URL so the page stays shareable.

No JS? Fill the form by hand. The geolocation button needs JavaScript.